Dewpoint
55 55 55 55 56 56 56 56 57 57 58 58 58 58 58 58 58 58 59 59 59 59 59 59 60 60 60 61 61 60 59 47 42 39 31 35 59 65 68 67 65 62 57 33 31 27 25 29 27 32 34 36 36 35 37 39 37 33 25 23 19 16 18 22 20 23 25 23 21 21 22 22 22 22 23 24 21 21 21 20 20 21 20 23 26 27 29 35
54 55 55 55 56 56 56 57 57 57 58 58 58 58 58 58 58 58 59 59 59 59 59 60 59 60 60 60 61 60 56 42 37 31 33 46 66 67 66 67 65 59 48 31 29 28 25 24 31 31 30 28 37 35 37 35 35 28 26 19 19 22 20 25 22 24 21 22 20 22 23 21 22 21 22 22 21 21 21 22 22 20 20 21 23 32 35 36
54 54 55 55 55 56 56 56 57 57 57 57 58 58 58 58 58 59 59 59 59 59 59 60 60 60 60 61 60 60 48 38 29 27 30 57 67 67 65 64 63 56 34 31 31 26 24 23 30 28 30 27 29 34 35 35 36 33 25 21 24 24 21 25 26 24 23 25 24 24 24 22 22 24 23 25 21 22 22 22 21 22 21 22 26 34 37 37
54 54 55 55 55 56 56 56 56 57 57 57 58 58 58 58 58 59 59 59 59 59 59 59 60 60 60 60 60 56 40 32 26 26 29 62 67 67 65 62 59 45 32 32 31 30 30 30 30 30 31 27 29 35 31 33 29 32 24 23 24 26 26 22 27 26 25 25 26 24 24 26 27 24 25 22 22 24 23 23 21 21 21 22 32 36 37 37
53 54 54 54 54 55 56 56 57 57 57 58 58 58 58 59 58 59 59 59 59 59 59 59 60 60 60 60 59 49 34 22 25 29 32 65 67 66 62 60 55 34 31 30 29 29 29 29 29 31 29 26 29 29 30 35 32 30 24 26 27 29 26 24 28 29 28 26 26 25 25 25 26 23 22 23 21 19 23 23 23 22 26 34 36 36 37 37
54 53 54 54 54 55 56 56 56 57 57 58 58 58 58 59 58 58 59 59 59 59 59 59 60 60 60 60 46 38 33 23 28 35 61 65 66 64 61 57 51 32 31 30 29 30 28 26 26 30 26 23 23 19 19 34 34 24 24 30 30 29 26 29 28 27 26 29 27 25 27 24 23 22 22 22 21 22 25 28 33 32 34 36 36 37 36 37
54 54 53 53 54 54 55 56 56 56 57 58 58 58 58 59 59 58 59 59 59 59 59 59 59 60 60 56 44 35 31 31 35 40 61 62 63 63 60 56 50 35 32 31 30 30 29 26 26 29 23 21 21 22 26 28 33 24 20 28 29 30 29 29 30 29 29 28 24 26 24 23 22 19 22 22 22 27 33 36 36 36 36 36 35 36 36 36
54 53 54 54 53 54 55 55 56 57 57 58 58 58 58 59 59 58 59 59 59 59 59 59 59 60 58 39 37 34 35 33 32 46 60 58 49 53 52 42 38 38 31 31 29 28 28 26 24 27 22 19 17 23 26 25 31 29 28 31 31 30 30 29 28 24 23 25 25 25 22 20 21 21 22 20 22 30 35 35 36 35 35 35 35 35 35 35
55 54 54 55 54 54 54 55 56 57 58 58 58 58 58 59 59 59 59 59 59 59 59 59 59 60 57 40 35 33 32 40 37 47 54 48 45 41 41 37 35 33 32 32 32 30 30 29 26 22 17 22 23 22 24 20 19 31 27 30 26 23 23 22 22 22 22 22 23 21 20 20 20 23 21 20 24 31 35 35 35 35 34 34 34 34 34 34
57 55 55 55 54 54 54 55 56 57 58 58 58 58 58 58 59 58 59 59 59 59 58 59 59 59 43 38 37 31 35 41 55 58 52 46 40 40 40 39 34 32 30 32 29 28 29 27 29 27 24 23 24 21 24 21 18 29 29 26 24 23 22 25 22 21 22 22 22 20 20 20 20 21 17 21 24 33 34 34 34 34 33 34 34 34 34 34
58 58 56 57 56 54 55 55 56 57 57 58 58 58 58 58 58 59 58 59 59 58 58 59 58 49 39 37 35 32 41 47 51 56 50 41 39 37 40 39 37 34 33 35 31 29 29 28 32 28 30 19 22 24 23 22 23 23 23 23 22 22 22 21 21 21 21 20 21 20 20 22 20 23 18 20 28 35 34 33 33 33 33 33 33 33 34 34
58 57 55 55 55 55 55 55 56 57 57 58 58 58 58 58 58 58 58 59 58 58 58 58 56 47 39 37 35 36 44 44 53 50 47 45 45 44 43 42 38 38 33 31 35 39 33 31 32 23 19 26 22 24 23 23 24 24 23 21 22 22 21 22 20 20 23 20 21 21 20 20 21 19 22 23 34 34 33 33 33 32 32 33 33 33 33 33
58 57 55 55 55 55 55 55 56 57 57 58 58 58 58 58 58 58 59 58 58 58 58 58 54 45 40 35 37 42 42 45 51 46 45 46 45 45 44 43 41 37 35 32 35 40 36 32 29 26 29 23 23 24 25 25 24 23 23 21 21 21 22 22 22 22 20 19 20 22 21 22 21 21 20 26 33 33 32 32 32 32 32 32 33 33 33 33
58 57 56 55 54 54 55 55 56 56 57 57 58 58 58 58 58 58 58 58 58 57 58 56 48 43 37 35 39 41 44 51 50 46 45 46 40 43 41 40 40 39 42 38 41 41 38 36 33 29 33 26 25 32 26 24 25 23 23 23 23 23 22 23 23 21 21 22 21 22 24 20 22 20 25 26 24 33 32 32 31 31 32 32 33 33 32 32
58 57 57 56 55 55 55 55 56 56 57 58 58 58 58 58 58 58 59 58 58 59 58 57 46 39 36 36 41 42 55 50 48 49 48 43 41 41 40 36 35 36 36 38 40 41 38 36 33 30 29 29 30 26 24 25 25 25 22 24 26 22 24 24 25 24 21 22 20 21 25 20 21 19 31 30 33 32 31 31 31 31 31 32 32 32 32 31
58 58 57 57 56 56 55 54 55 57 58 59 58 58 58 58 58 59 58 58 57 58 53 47 48 40 37 36 40 53 42 40 41 44 42 45 42 41 42 37 39 34 33 32 35 33 33 33 30 29 27 27 26 26 25 25 26 25 23 25 25 24 22 21 23 23 26 23 20 20 21 19 21 20 30 32 33 32 31 31 31 31 31 31 31 31 31 31
58 58 58 57 55 55 56 55 56 57 58 59 59 58 58 58 58 58 59 57 54 52 48 43 47 43 36 40 40 38 37 39 42 41 41 42 42 40 38 38 35 32 33 34 36 35 32 29 31 30 28 26 26 27 24 25 23 25 24 23 26 22 22 21 22 24 26 21 18 22 20 18 21 20 32 32 33 31 30 30 30 31 31 31 31 30 30 30
59 58 58 57 56 56 56 57 57 57 59 59 58 57 57 57 56 56 54 53 50 49 47 47 44 40 37 39 37 38 41 40 42 41 41 40 40 37 35 32 34 32 33 32 32 31 33 30 31 29 27 25 24 26 26 24 25 25 23 23 23 22 21 21 22 22 22 23 23 23 21 18 19 21 32 32 31 31 30 30 30 30 30 30 30 30 29 29
59 58 57 57 57 57 57 57 57 58 59 58 58 57 57 56 48 49 48 46 43 40 38 39 39 36 34 36 38 38 42 42 41 42 40 39 39 36 36 34 34 31 30 30 29 28 29 30 31 28 26 25 23 24 24 27 26 26 25 26 25 24 24 21 22 22 23 23 23 23 23 23 24 24 30 32 31 30 30 30 30 30 29 29 29 29 29 29
59 58 58 57 57 57 56 56 57 58 58 57 55 52 46 43 42 41 43 45 42 40 40 40 41 39 39 39 37 40 41 41 39 39 41 41 35 34 32 32 34 31 27 30 30 30 30 27 26 26 26 26 25 25 25 25 25 25 26 26 23 24 23 24 24 24 26 23 22 23 23 23 24 24 30 31 31 30 29 29 30 30 29 29 29 29 28 28
59 59 58 58 58 57 57 57 58 58 59 57 54 45 41 42 37 38 39 42 46 44 42 42 41 40 39 39 40 39 37 37 38 38 41 43 37 32 32 30 30 28 30 31 30 29 29 27 26 27 26 26 25 25 25 24 23 23 24 24 22 24 22 23 23 26 27 24 23 25 25 25 25 25 30 31 31 30 29 29 29 29 29 29 28 28 28 28
58 58 58 58 58 58 57 57 58 58 58 56 51 44 42 42 42 42 41 40 42 44 44 44 42 42 43 39 39 40 40 38 38 38 40 40 34 31 31 29 28 27 31 31 30 28 26 25 26 27 27 25 25 24 24 24 24 24 23 23 23 22 24 24 24 28 28 25 23 25 25 25 25 29 30 30 30 31 31 30 29 28 28 28 28 28 28 28
58 58 58 57 57 57 57 58 58 59 55 51 46 42 41 43 46 45 43 39 40 42 42 42 41 42 42 43 43 40 37 37 37 39 38 39 34 33 31 29 28 30 31 29 28 28 28 30 29 28 27 26 26 24 23 25 25 24 23 23 22 25 25 25 25 29 27 25 26 27 26 27 27 29 29 30 30 30 30 30 31 30 29 29 28 28 28 27
58 58 58 57 57 57 57 58 58 56 54 53 47 44 44 45 44 42 41 39 39 41 42 42 42 41 42 41 42 39 38 38 38 38 41 35 33 35 31 30 29 30 29 29 29 29 29 30 31 29 29 27 28 27 25 24 24 27 26 25 25 25 24 25 24 27 28 28 28 27 27 26 27 27 29 29 30 29 29 28 28 29 30 30 29 28 29 27
58 58 57 57 57 58 57 58 55 54 51 49 48 47 46 45 44 43 40 37 34 36 41 40 41 41 42 41 42 39 40 39 39 40 40 36 33 32 31 32 31 29 30 30 30 30 30 32 31 28 28 28 28 27 27 28 26 26 27 25 25 26 24 25 27 25 26 27 27 26 24 21 24 25 28 29 28 28 29 27 28 28 28 28 27 27 27 28
58 57 57 57 57 57 58 53 52 52 50 48 49 48 46 45 44 42 37 33 34 35 38 37 42 39 42 39 40 40 40 37 38 40 44 37 40 34 32 31 33 31 30 30 30 30 30 31 32 32 29 28 28 28 28 29 27 26 28 28 26 26 26 26 27 28 24 23 27 25 23 21 24 24 28 28 28 28 28 28 28 28 28 28 28 28 28 27
58 57 57 57 57 57 53 49 51 52 48 49 49 47 46 45 44 43 37 32 31 35 36 39 38 37 38 36 39 38 33 34 37 37 36 39 35 37 33 31 31 31 32 31 31 31 31 30 30 30 30 29 27 27 28 28 27 26 29 28 28 27 26 27 27 27 26 27 28 25 24 22 23 25 28 28 27 27 27 27 28 28 27 28 28 27 27 27
58 57 57 57 57 57 54 53 51 50 48 49 48 46 46 46 43 42 38 30 29 36 34 35 37 39 37 34 37 36 35 34 34 37 35 37 36 34 34 32 32 31 30 33 30 32 31 29 30 29 29 29 29 30 29 30 29 28 29 29 28 28 27 28 28 27 25 25 25 25 27 23 22 24 28 28 27 27 27 27 27 27 28 27 27 27 27 27
58 57 57 56 57 57 57 55 54 51 51 48 48 47 46 45 44 41 36 30 35 30 37 33 39 35 34 36 34 31 29 28 33 34 35 35 36 34 33 33 33 31 30 33 32 31 30 30 31 31 30 29 30 29 30 30 28 30 29 28 27 27 27 28 26 26 24 22 19 23 26 21 22 25 26 28 27 26 27 27 27 27 27 27 27 27 26 26
58 57 57 56 56 56 55 56 54 53 50 49 48 48 47 44 45 37 32 28 32 30 34 33 33 31 35 35 34 31 28 27 31 32 33 34 33 33 31 34 30 30 30 29 29 32 30 33 33 30 30 31 30 30 30 30 29 29 29 28 27 25 24 24 22 22 20 19 22 24 26 23 20 24 24 25 26 27 27 27 27 28 28 28 27 26 26 25
57 57 57 56 54 54 55 52 54 51 50 49 50 50 49 46 39 34 30 35 36 31 32 32 30 34 35 34 33 32 27 28 32 33 32 33 31 30 30 31 31 29 28 29 29 29 29 29 29 30 32 30 30 29 29 29 29 29 28 27 27 26 19 18 13 18 18 16 18 20 23 23 20 20 23 26 27 28 27 26 26 26 27 27 27 26 25 25
57 57 57 56 55 56 52 51 54 51 51 50 51 49 47 37 38 34 32 35 31 33 30 30 30 32 33 30 30 30 29 28 28 32 31 30 30 30 29 30 30 24 25 26 29 27 28 29 30 29 34 31 29 29 28 29 29 28 28 27 21 19 17 14 11 15 16 16 19 21 22 22 22 23 22 23 26 27 28 27 27 26 26 27 27 26 26 26
57 57 57 56 55 54 54 52 53 52 51 51 50 48 41 35 29 37 35 33 31 32 30 32 30 30 31 29 27 29 29 29 28 30 31 30 31 30 30 29 30 28 24 24 28 26 28 28 28 29 29 31 31 27 26 26 28 28 28 24 19 13 2 5 9 5 11 14 16 19 20 20 22 22 25 24 26 27 28 28 29 27 27 27 27 26 26 26
57 57 56 56 56 55 53 53 53 52 51 52 49 44 38 32 32 39 37 33 32 34 32 30 29 29 30 30 28 29 28 28 30 29 30 29 29 29 30 30 29 28 26 25 25 25 19 23 27 29 29 31 31 30 29 27 28 28 28 27 25 17 7 11 5 11 14 14 14 15 13 15 16 20 26 26 26 27 27 27 28 28 27 27 26 26 25 25
56 56 56 56 55 55 53 53 53 53 53 51 46 41 32 32 33 32 33 33 33 32 32 33 29 29 29 30 32 31 31 27 28 28 27 29 28 27 29 30 30 29 27 25 26 22 24 24 27 29 30 30 30 30 30 29 28 26 27 28 23 23 21 18 15 10 8 13 13 14 17 19 22 21 27 26 26 26 28 28 28 27 27 26 25 25 24 24
55 55 56 53 53 54 53 53 53 54 53 48 42 35 33 35 33 34 35 37 36 33 33 33 32 30 29 30 32 30 31 28 29 27 26 27 27 28 28 29 31 30 27 26 25 21 23 23 27 29 29 30 29 30 28 29 22 26 27 23 27 28 24 23 23 19 18 18 19 12 19 23 25 25 25 26 26 26 26 27 27 26 26 25 25 24 24 24
54 54 51 51 53 54 54 54 54 54 52 47 41 34 37 36 39 36 39 36 36 33 31 29 32 29 31 29 31 32 31 32 29 27 25 27 26 28 27 28 31 31 29 29 26 27 24 23 27 27 27 29 30 30 29 29 29 27 24 27 29 30 30 26 23 23 20 21 22 17 18 20 20 21 25 25 26 26 25 26 26 26 25 25 25 24 24 23
52 51 51 51 52 54 54 54 54 53 49 44 38 38 38 38 38 38 38 37 37 37 35 34 34 32 31 31 31 31 33 30 29 28 28 28 27 30 28 28 31 31 30 31 26 28 28 23 26 27 27 29 28 29 28 29 29 27 26 30 26 23 23 25 24 20 20 20 21 21 19 20 22 22 22 22 24 26 26 26 25 25 25 25 25 24 24 23
51 50 47 50 53 54 54 54 53 50 46 40 39 37 40 39 39 38 39 39 39 38 36 36 36 35 33 30 32 32 32 29 30 29 29 30 27 31 30 32 31 32 33 31 28 29 29 24 26 27 27 28 28 28 24 26 29 30 28 27 27 25 24 24 26 25 25 22 20 19 19 19 22 22 23 22 23 26 26 25 25 25 25 25 25 24 23 23
49 46 46 48 51 54 54 54 50 47 43 37 39 38 40 38 40 41 41 41 39 38 37 36 36 35 34 33 32 32 32 33 30 31 31 32 30 32 28 32 30 31 32 33 31 33 27 27 20 25 27 27 26 27 25 27 26 26 26 25 25 21 26 27 22 23 21 14 18 19 19 21 24 23 24 23 23 26 26 26 26 26 26 25 25 25 24 23
47 45 44 48 50 53 53 50 45 41 41 37 39 38 38 38 40 40 41 42 41 42 40 37 37 36 36 34 33 33 32 33 33 33 32 31 30 29 30 31 32 31 32 31 29 30 27 26 25 25 25 25 25 27 28 29 29 27 26 26 26 23 20 19 21 24 20 21 20 18 19 22 26 24 24 24 24 26 27 27 26 26 26 26 26 25 24 23
47 41 43 48 49 53 50 42 42 43 39 37 37 39 38 43 39 39 40 41 41 40 42 39 38 37 35 36 36 33 33 32 33 32 32 32 32 32 32 33 32 33 32 29 29 32 31 28 25 21 24 26 27 29 29 28 28 28 27 26 28 26 25 20 19 22 16 21 18 19 16 21 26 27 27 25 25 24 27 27 27 27 26 26 26 25 24 23
46 42 45 47 49 50 47 41 42 41 40 40 40 40 41 39 39 39 40 40 40 41 39 38 39 37 38 37 36 34 36 33 33 34 33 32 32 32 32 34 35 36 34 31 33 31 35 27 24 26 27 27 28 29 30 28 28 27 27 26 26 25 26 24 24 22 21 15 16 12 18 22 27 27 24 22 22 23 25 25 26 25 26 26 25 24 24 23
42 41 43 47 49 48 44 37 36 39 39 40 39 39 41 40 39 38 39 40 39 39 38 38 38 40 38 38 36 35 37 32 34 34 33 32 33 33 32 33 36 32 34 34 36 35 31 31 30 25 24 22 24 28 27 26 27 22 24 25 25 26 26 25 24 21 20 21 22 19 18 20 28 28 27 26 23 24 25 26 27 26 26 26 24 24 24 24
41 42 43 45 47 46 39 41 39 39 38 37 38 37 39 39 40 40 39 39 41 40 38 37 39 38 38 38 37 35 35 35 33 34 34 32 33 31 32 33 33 35 34 36 39 37 32 31 29 25 23 20 17 17 12 17 25 26 23 23 26 27 26 24 22 18 22 23 21 19 22 25 27 27 26 25 23 25 26 26 27 27 26 26 25 25 24 24
38 34 39 40 43 42 41 41 40 39 38 37 37 38 39 37 37 39 40 40 42 40 40 38 37 38 36 36 35 35 35 35 34 32 33 32 31 32 31 30 32 32 34 38 36 34 30 30 31 29 27 25 25 21 22 27 25 23 23 26 27 26 27 26 23 22 23 22 22 24 24 24 25 25 26 24 22 25 25 25 25 26 27 27 26 26 25 25
39 34 35 33 40 40 38 40 39 40 37 40 35 38 36 37 36 37 40 37 40 40 38 38 36 36 35 36 35 35 35 34 34 33 33 32 32 31 31 31 29 30 37 34 33 31 29 29 30 29 29 29 29 28 26 28 25 25 23 24 26 26 24 25 25 24 23 22 23 25 26 24 24 25 26 26 26 25 26 27 26 28 28 27 27 26 29 25
35 36 38 39 37 33 35 36 39 38 39 40 36 38 37 36 36 35 38 39 38 40 38 36 37 38 37 36 35 33 33 34 33 32 33 32 33 32 33 31 31 33 35 32 32 31 30 29 29 29 28 29 29 28 26 26 26 26 26 25 25 26 24 24 24 26 26 24 22 23 24 24 25 26 27 28 28 28 26 28 28 28 28 29 27 26 26 25
37 32 35 37 35 33 37 37 39 39 38 38 37 38 36 36 35 36 36 35 37 37 39 33 35 37 37 36 36 33 34 32 32 33 33 33 33 32 31 31 31 30 31 30 31 29 29 29 29 28 26 27 28 27 27 27 25 25 26 27 27 27 27 26 26 26 26 26 26 26 26 26 26 27 28 29 29 29 28 29 27 27 27 27 27 26 26 26
32 32 31 34 33 32 32 36 37 38 35 39 34 36 36 36 36 35 35 36 33 34 38 37 35 35 35 35 35 33 34 34 32 32 33 33 32 32 30 32 29 29 28 29 30 31 31 29 29 26 26 27 27 26 25 25 23 25 26 27 27 27 26 26 26 26 26 26 26 26 26 26 26 26 27 28 24 27 27 25 26 27 27 27 27 26 26 26
33 34 34 32 31 30 32 34 35 36 33 36 35 36 37 36 35 36 35 36 36 33 35 36 36 34 35 35 35 35 35 34 33 33 34 34 33 33 33 32 32 28 28 28 26 28 29 27 23 23 24 24 23 23 23 23 24 23 25 27 27 26 25 25 25 26 25 25 25 25 25 25 26 23 25 24 23 26 26 26 26 26 26 26 26 26 26 26
32 32 34 34 30 35 30 32 33 34 32 34 36 35 35 36 35 35 33 34 34 34 35 36 35 35 32 34 34 35 36 35 35 35 35 35 34 32 33 32 32 30 29 30 26 28 28 23 22 21 24 23 26 23 23 22 22 22 23 24 25 25 26 26 26 24 26 26 24 24 24 27 24 24 23 23 21 23 24 24 25 25 25 25 26 26 26 26